Regional Weather Roundup
Issued by NWS Tiyan, Guam

Home | Current Version | Previous Version | Text Only | Print | Product List | Glossary On
Versions: 1 2 3 4 5 6 7 8 9 10 11 12 13 14 15 16 17 18 19 20 21 22 23 24 25 26 27 28 29 30 31 32 33 34 35 36 37 38 39 40 41 42 43 44 45 46 47 48 49 50
000
ASGM40 PGUM 270812
RWRGUM
WEATHER ROUNDUP FOR THE MARIANAS
NATIONAL WEATHER SERVICE TIYAN GU
600 PM CHST SAT MAY 27 2017

GUZ001>004-270900-
MARIANA ISLANDS-

CITY           SKY/WX    TMP DP  RH WIND       PRES   REMARKS
GUAM AIRPORT   PTCLDY    86  75  70 E15       29.87R HX  95
ANDERSEN AFB   PTCLDY    82  73  74 E14       29.88R
ROTA AIRPORT   PTCLDY    82  77  83 E14       29.88R HX  91
TINIAN AP      PTCLDY    84  75  74 E14       29.86R HX  92
SAIPAN AP      CLOUDY    84  77  79 E14       29.88R HX  94

$$




USA.gov is the U.S. government's official web portal to all federal, state and local government web resources and services.